Year,Month,Day,Hour,Minute,Value (Times are PST for temperature in C)
2021,06,26,13,22,30.00
2021,06,26,13,23,30.10
2021,06,26,13,24,30.10
2021,06,26,13,25,30.10
2021,06,26,13,26,30.10
2021,06,26,13,27,30.10
2021,06,26,13,28,30.10
2021,06,26,13,29,30.10
2021,06,26,13,30,30.20
2021,06,26,13,31,30.30
2021,06,26,13,32,30.40
2021,06,26,13,33,30.50
2021,06,26,13,34,30.60
2021,06,26,13,35,30.70
2021,06,26,13,36,30.80
2021,06,26,13,37,30.80
2021,06,26,13,38,30.80
2021,06,26,13,39,30.90
2021,06,26,13,40,30.90
2021,06,26,13,41,30.90
2021,06,26,13,42,30.80
2021,06,26,13,43,30.80
2021,06,26,13,44,30.80
2021,06,26,13,45,30.80
2021,06,26,13,46,30.80
2021,06,26,13,47,30.90
2021,06,26,13,48,31.00
2021,06,26,13,49,31.00
2021,06,26,13,50,31.10
2021,06,26,13,51,31.10
2021,06,26,13,52,31.10
2021,06,26,13,53,31.10
2021,06,26,13,54,31.20
2021,06,26,13,55,31.20
2021,06,26,13,56,31.30
2021,06,26,13,57,31.30
2021,06,26,13,58,31.40
2021,06,26,13,59,31.50
2021,06,26,14,00,31.50
2021,06,26,14,01,31.50
2021,06,26,14,02,31.50
2021,06,26,14,03,31.40
2021,06,26,14,04,31.30
2021,06,26,14,05,31.20
2021,06,26,14,06,31.20
2021,06,26,14,07,31.30
2021,06,26,14,08,31.40
2021,06,26,14,09,31.40
2021,06,26,14,10,31.50
2021,06,26,14,11,31.50
2021,06,26,14,12,31.60
2021,06,26,14,13,31.60
2021,06,26,14,14,31.70
2021,06,26,14,15,31.70
2021,06,26,14,16,31.80
2021,06,26,14,17,31.90
2021,06,26,14,18,31.90
2021,06,26,14,19,32.00
2021,06,26,14,20,32.10
2021,06,26,14,21,32.10
2021,06,26,14,22,32.20
2021,06,26,14,23,32.30
2021,06,26,14,24,32.40
2021,06,26,14,25,32.40
2021,06,26,14,26,32.40
2021,06,26,14,27,32.40
2021,06,26,14,28,32.40
2021,06,26,14,29,32.40
2021,06,26,14,30,32.30
2021,06,26,14,31,32.30
2021,06,26,14,32,32.20
2021,06,26,14,33,32.10
2021,06,26,14,34,31.90
2021,06,26,14,35,31.70
2021,06,26,14,36,31.60
2021,06,26,14,37,31.60
2021,06,26,14,38,31.60
2021,06,26,14,39,31.60
2021,06,26,14,40,31.60
2021,06,26,14,41,31.60
2021,06,26,14,42,31.60
2021,06,26,14,43,31.60
2021,06,26,14,44,31.60
2021,06,26,14,45,31.50
2021,06,26,14,46,31.50
2021,06,26,14,47,31.50
2021,06,26,14,48,31.60
2021,06,26,14,49,31.60
2021,06,26,14,50,31.70
2021,06,26,14,51,31.70
2021,06,26,14,52,31.80
2021,06,26,14,53,31.80
2021,06,26,14,54,31.80
2021,06,26,14,55,31.80
2021,06,26,14,56,31.90
2021,06,26,14,57,31.90
2021,06,26,14,58,31.90
2021,06,26,14,59,31.90
2021,06,26,15,00,31.90
2021,06,26,15,01,31.90
2021,06,26,15,02,31.90
2021,06,26,15,03,31.80
2021,06,26,15,04,31.80
2021,06,26,15,05,31.80
2021,06,26,15,06,31.90
2021,06,26,15,07,31.90
2021,06,26,15,08,32.00
2021,06,26,15,09,32.10
2021,06,26,15,10,32.20
2021,06,26,15,11,32.20
2021,06,26,15,12,32.30
2021,06,26,15,13,32.40
2021,06,26,15,14,32.50
2021,06,26,15,15,32.50
2021,06,26,15,16,32.50
2021,06,26,15,17,32.60
2021,06,26,15,18,32.60
2021,06,26,15,19,32.60
2021,06,26,15,20,32.60
2021,06,26,15,21,32.60
2021,06,26,15,22,32.50
2021,06,26,15,23,32.40
2021,06,26,15,24,32.40
2021,06,26,15,25,32.30
2021,06,26,15,26,32.30
2021,06,26,15,27,32.30
2021,06,26,15,28,32.30
2021,06,26,15,29,32.30
2021,06,26,15,30,32.30
2021,06,26,15,31,32.40
2021,06,26,15,32,32.40
2021,06,26,15,33,32.40
2021,06,26,15,34,32.40
2021,06,26,15,35,32.40
2021,06,26,15,36,32.50
2021,06,26,15,37,32.50
2021,06,26,15,38,32.60
2021,06,26,15,39,32.70
2021,06,26,15,40,32.80
2021,06,26,15,41,32.80
2021,06,26,15,42,32.90
2021,06,26,15,43,32.90
2021,06,26,15,44,32.90
2021,06,26,15,45,32.90
2021,06,26,15,46,32.90
2021,06,26,15,47,32.90
2021,06,26,15,48,32.90
2021,06,26,15,49,32.90
2021,06,26,15,50,32.80
2021,06,26,15,51,32.80
2021,06,26,15,52,32.70
2021,06,26,15,53,32.70
2021,06,26,15,54,32.70
2021,06,26,15,55,32.80
2021,06,26,15,56,32.80
2021,06,26,15,57,32.90
2021,06,26,15,58,33.00
2021,06,26,15,59,33.10
2021,06,26,16,00,33.20
2021,06,26,16,01,33.30
2021,06,26,16,02,33.40
2021,06,26,16,03,33.40
2021,06,26,16,04,33.40
2021,06,26,16,05,33.40
2021,06,26,16,06,33.50
2021,06,26,16,07,33.50
2021,06,26,16,08,33.60
2021,06,26,16,09,33.60
2021,06,26,16,10,33.60
2021,06,26,16,11,33.70
2021,06,26,16,12,33.70
2021,06,26,16,13,33.70
2021,06,26,16,14,33.70
2021,06,26,16,15,33.70
2021,06,26,16,16,33.70
2021,06,26,16,17,33.70
2021,06,26,16,18,33.70
2021,06,26,16,19,33.70
2021,06,26,16,20,33.70
2021,06,26,16,21,33.70
2021,06,26,16,22,33.70
2021,06,26,16,23,33.70
2021,06,26,16,24,33.70
2021,06,26,16,25,33.70
2021,06,26,16,26,33.70
2021,06,26,16,27,33.70
2021,06,26,16,28,33.70
2021,06,26,16,29,33.70
2021,06,26,16,30,33.80
2021,06,26,16,31,33.80
2021,06,26,16,32,33.80
2021,06,26,16,33,33.80
2021,06,26,16,34,33.70
2021,06,26,16,35,33.80
2021,06,26,16,36,33.80
2021,06,26,16,37,33.80
2021,06,26,16,38,33.80
2021,06,26,16,39,33.80
2021,06,26,16,40,33.80
2021,06,26,16,41,33.80
2021,06,26,16,42,33.80
2021,06,26,16,43,33.70
2021,06,26,16,44,33.70
2021,06,26,16,45,33.70
2021,06,26,16,46,33.70
2021,06,26,16,47,33.70
2021,06,26,16,48,33.60
2021,06,26,16,49,33.60
2021,06,26,16,50,33.50
2021,06,26,16,51,33.50
2021,06,26,16,52,33.50
2021,06,26,16,53,33.60
2021,06,26,16,54,33.60
2021,06,26,16,55,33.60
2021,06,26,16,56,33.70
2021,06,26,16,57,33.70
2021,06,26,16,58,33.70
2021,06,26,16,59,33.80
2021,06,26,17,00,33.80
2021,06,26,17,01,33.80
2021,06,26,17,02,33.80
2021,06,26,17,03,33.90
2021,06,26,17,04,33.90
2021,06,26,17,05,33.90
2021,06,26,17,06,33.90
2021,06,26,17,07,33.80
2021,06,26,17,08,33.80
2021,06,26,17,09,33.80
2021,06,26,17,10,33.80
2021,06,26,17,11,33.70
2021,06,26,17,12,33.70
2021,06,26,17,13,33.70
2021,06,26,17,14,33.70
2021,06,26,17,15,33.70
2021,06,26,17,16,33.60
2021,06,26,17,17,33.60
2021,06,26,17,18,33.60
2021,06,26,17,19,33.60
2021,06,26,17,20,33.60
2021,06,26,17,21,33.50
2021,06,26,17,22,33.50
2021,06,26,17,23,33.40
2021,06,26,17,24,33.40
2021,06,26,17,25,33.40
2021,06,26,17,26,33.30
2021,06,26,17,27,33.30
2021,06,26,17,28,33.30
2021,06,26,17,29,33.30
2021,06,26,17,30,33.30
2021,06,26,17,31,33.30
2021,06,26,17,32,33.30
2021,06,26,17,33,33.40
2021,06,26,17,34,33.40
2021,06,26,17,35,33.40
2021,06,26,17,36,33.50
2021,06,26,17,37,33.50
2021,06,26,17,38,33.60
2021,06,26,17,39,33.60
2021,06,26,17,40,33.70
2021,06,26,17,41,33.70
2021,06,26,17,42,33.80
2021,06,26,17,43,33.80
2021,06,26,17,44,33.80
2021,06,26,17,45,33.90
2021,06,26,17,46,33.90
2021,06,26,17,47,33.90
2021,06,26,17,48,33.90
2021,06,26,17,49,33.90
2021,06,26,17,50,33.90
2021,06,26,17,51,33.90
2021,06,26,17,52,33.90
2021,06,26,17,53,34.00
2021,06,26,17,54,34.00
2021,06,26,17,55,34.10
2021,06,26,17,56,34.10
2021,06,26,17,57,34.10
2021,06,26,17,58,34.10
2021,06,26,17,59,34.20
2021,06,26,18,00,34.20
2021,06,26,18,01,34.30
2021,06,26,18,02,34.30
2021,06,26,18,03,34.40
2021,06,26,18,04,34.50
2021,06,26,18,05,34.50
2021,06,26,18,06,34.60
2021,06,26,18,07,34.60
2021,06,26,18,08,34.70
2021,06,26,18,09,34.70
2021,06,26,18,10,34.80
2021,06,26,18,11,34.80
2021,06,26,18,12,34.90
2021,06,26,18,13,34.90
2021,06,26,18,14,34.90
2021,06,26,18,15,34.90
2021,06,26,18,16,34.90
2021,06,26,18,17,35.00
2021,06,26,18,18,35.00
2021,06,26,18,19,35.00
2021,06,26,18,20,35.00
2021,06,26,18,21,34.90
2021,06,26,18,22,34.90
2021,06,26,18,23,34.90
2021,06,26,18,24,34.80
2021,06,26,18,25,34.80
2021,06,26,18,26,34.70
2021,06,26,18,27,34.70
2021,06,26,18,28,34.60
2021,06,26,18,29,34.50
2021,06,26,18,30,34.50
2021,06,26,18,31,34.40
2021,06,26,18,32,34.40
2021,06,26,18,33,34.40
2021,06,26,18,34,34.30
2021,06,26,18,35,34.30
2021,06,26,18,36,34.20
2021,06,26,18,37,34.20
2021,06,26,18,38,34.20
2021,06,26,18,39,34.20
2021,06,26,18,40,34.20
2021,06,26,18,41,34.10
2021,06,26,18,42,34.10
2021,06,26,18,43,34.10
2021,06,26,18,44,34.10
2021,06,26,18,45,34.10
2021,06,26,18,46,34.10
2021,06,26,18,47,34.10
2021,06,26,18,48,34.10
2021,06,26,18,49,34.10
2021,06,26,18,50,34.10
2021,06,26,18,51,34.10
2021,06,26,18,52,34.10
2021,06,26,18,53,34.10
2021,06,26,18,54,34.10
2021,06,26,18,55,34.10
2021,06,26,18,56,34.10
2021,06,26,18,57,34.10
2021,06,26,18,58,34.10
2021,06,26,18,59,34.10
2021,06,26,19,00,34.10
2021,06,26,19,01,34.10
2021,06,26,19,02,34.10
2021,06,26,19,03,34.10
2021,06,26,19,04,34.10
2021,06,26,19,05,34.00
2021,06,26,19,06,34.00
2021,06,26,19,07,34.10
2021,06,26,19,08,34.10
2021,06,26,19,09,34.10
2021,06,26,19,10,34.10
2021,06,26,19,11,34.10
2021,06,26,19,12,34.00
2021,06,26,19,13,34.00
2021,06,26,19,14,33.90
2021,06,26,19,15,33.90
2021,06,26,19,16,33.80
2021,06,26,19,17,33.80
2021,06,26,19,18,33.70
2021,06,26,19,19,33.70
2021,06,26,19,20,33.60
2021,06,26,19,21,33.60
2021,06,26,19,22,33.50
2021,06,26,19,23,33.50
2021,06,26,19,24,33.40
2021,06,26,19,25,33.40
2021,06,26,19,26,33.40
2021,06,26,19,27,33.50
2021,06,26,19,28,33.50
2021,06,26,19,29,33.60
2021,06,26,19,30,33.60
2021,06,26,19,31,33.70
2021,06,26,19,32,33.70
2021,06,26,19,33,33.80
2021,06,26,19,34,33.90
2021,06,26,19,35,33.90
2021,06,26,19,36,34.00
2021,06,26,19,37,34.10
2021,06,26,19,38,34.10
2021,06,26,19,39,34.10
2021,06,26,19,40,34.20
2021,06,26,19,41,34.20
2021,06,26,19,42,34.20
2021,06,26,19,43,34.20
2021,06,26,19,44,34.20
2021,06,26,19,45,34.20
2021,06,26,19,46,34.20
2021,06,26,19,47,34.20
2021,06,26,19,48,34.10
2021,06,26,19,49,34.00
2021,06,26,19,50,34.00
2021,06,26,19,51,33.90
2021,06,26,19,52,33.80
2021,06,26,19,53,33.70
2021,06,26,19,54,33.60
2021,06,26,19,55,33.50
2021,06,26,19,56,33.40
2021,06,26,19,57,33.40
2021,06,26,19,58,33.30
2021,06,26,19,59,33.20
2021,06,26,20,00,33.20
2021,06,26,20,01,33.10
2021,06,26,20,02,33.10
2021,06,26,20,03,33.00
2021,06,26,20,04,33.00
2021,06,26,20,05,33.00
2021,06,26,20,06,33.00
2021,06,26,20,07,33.00
2021,06,26,20,08,33.00
2021,06,26,20,09,33.00
2021,06,26,20,10,33.00
2021,06,26,20,11,33.00
2021,06,26,20,12,33.00
2021,06,26,20,13,33.00
2021,06,26,20,14,33.10
2021,06,26,20,15,33.10
2021,06,26,20,16,33.10
2021,06,26,20,17,33.10
2021,06,26,20,18,33.10
2021,06,26,20,19,33.10
2021,06,26,20,20,33.10
2021,06,26,20,21,33.10
2021,06,26,20,22,33.10
2021,06,26,20,23,33.00
2021,06,26,20,24,33.00
2021,06,26,20,25,32.90
2021,06,26,20,26,32.90
2021,06,26,20,27,32.90
2021,06,26,20,28,32.80
2021,06,26,20,29,32.80
2021,06,26,20,30,32.80
2021,06,26,20,31,32.80
2021,06,26,20,32,32.80
2021,06,26,20,33,32.70
2021,06,26,20,34,32.70
2021,06,26,20,35,32.70
2021,06,26,20,36,32.70
2021,06,26,20,37,32.70
2021,06,26,20,38,32.70
2021,06,26,20,39,32.70
2021,06,26,20,40,32.60
2021,06,26,20,41,32.60
2021,06,26,20,42,32.60
2021,06,26,20,43,32.50
2021,06,26,20,44,32.50
2021,06,26,20,45,32.50
2021,06,26,20,46,32.40
2021,06,26,20,47,32.40
2021,06,26,20,48,32.40
2021,06,26,20,49,32.30
2021,06,26,20,50,32.30
2021,06,26,20,51,32.30
2021,06,26,20,52,32.20
2021,06,26,20,53,32.20
2021,06,26,20,54,32.10
2021,06,26,20,55,32.10
2021,06,26,20,56,32.10
2021,06,26,20,57,32.00
2021,06,26,20,58,32.00
2021,06,26,20,59,31.90
2021,06,26,21,00,31.90
2021,06,26,21,01,31.80
2021,06,26,21,02,31.80
2021,06,26,21,03,31.70
2021,06,26,21,04,31.70
2021,06,26,21,05,31.70
2021,06,26,21,06,31.70
2021,06,26,21,07,31.70
2021,06,26,21,08,31.70
2021,06,26,21,09,31.70
2021,06,26,21,10,31.70
2021,06,26,21,11,31.70
2021,06,26,21,12,31.70
2021,06,26,21,13,31.70
2021,06,26,21,14,31.70
2021,06,26,21,15,31.70
